{"data":{"norad_id":43632,"intl_designator":"2018-074A","name":"AZERSPACE 2 (IS-38)","alt_names":[],"object_type":"PAYLOAD","status":"ACTIVE","operator":null,"country":"AZER","launch_date":"2018-09-25","launch_site_code":"FRGUI","launch_vehicle":null,"mission":null,"orbit_class":"UNKNOWN","rcs_meters":null,"size_class":null,"mass_kg":null,"dimensions":null,"purposes":["comms"],"wikipedia_slug":null,"has_3d_model":false,"image_url":null,"decayed_at":null,"tle_current":{"epoch":"2026-09-20T01:44:23.371008Z","epoch_age_seconds":51363,"freshness":"FRESH","line1":"1 43632U 18074A   26263.07249272  .00000000  00000+0  00000+0 0  9998","line2":"2 43632   0.0203 142.5333 0000842  49.7652 237.8872  1.00269236 29392","mean_motion":1.00269236,"eccentricity":8.42e-5,"inclination_deg":0.0203,"raan_deg":142.5333,"arg_perigee_deg":49.7652,"mean_anomaly_deg":237.8872,"bstar":0,"rev_number":2939,"period_min":1436.1334118473,"perigee_km":35783.75922296,"apogee_km":35790.85988416,"semimajor_km":42165.44655356,"source":"CELESTRAK","updated_at":"2026-09-20T09:00:35.523779Z"}}}